Volk, WI

8:15 AM CDT on September 19, 2019 (GMT -0500)
Volk

Weather History for KVOK - August, 2019

Change the Weather History Date:

Wednesday, August 21, 2019

  Actual Average Record
Temperature  
Mean Temperature 65 °F -  
Max Temperature 77 °F 76 °F 89 °F (2003)
Min Temperature 51 °F 60 °F 37 °F (2012)
Growing Degree Days 15 (Base 50)    
Moisture  
Dew Point 61 °F    
Average Humidity 91    
Maximum Humidity 100    
Minimum Humidity 44    
Precipitation  
Precipitation 0.00 in - - ()
Sea Level Pressure  
Sea Level Pressure 29.97 in    
Wind  
Wind Speed 3 mph ()    
Max Wind Speed 13 mph    
Max Gust Speed -    
Visibility 5.1 miles    
Events Fog    
Averages and records for this station are not official NWS values.
T = Trace of Precipitation, MM = Missing Value Source: Averaged Metar Reports

Daily Weather History Graph

Daily Weather History Graph

Search for Another Location

Airport or City:

Astronomy

Aug. 21, 2019 Rise Set
Actual Time 6:11 AM CDT 7:55 PM CDT
Civil Twilight 5:41 AM CDT 8:26 PM CDT
Nautical Twilight 5:03 AM CDT 9:03 PM CDT
Astronomical Twilight 4:23 AM CDT 9:43 PM CDT
Moon 11:01 PM CDT (8/21) 11:58 AM CDT (8/21)
Length of Visible Light 14h 45m
Length of Day
13h 44m
Waning Gibbous, 69% of the Moon is Illuminated
Aug 21
Waning Gibbous
Aug 23
Last Quarter
Aug 30
New
Sep 5
First Quarter
Sep 13
Full

Hourly Weather History & Observations

Time (CDT) Temp. Dew Point Humidity Pressure Visibility Wind Dir Wind Speed Gust Speed Precip Events Conditions
12:51 AM 64.4 °F 64.4 °F 100% 29.96 in 2.0 mi Calm Calm - N/A   Clear
12:56 AM 64.0 °F 64.0 °F 100% 29.96 in 1.8 mi Calm Calm - N/A   Clear
1:01 AM 62.6 °F 62.6 °F 100% 29.97 in 0.6 mi Calm Calm - N/A   Clear
1:11 AM 62.6 °F 62.6 °F 100% 29.97 in 0.4 mi Calm Calm - N/A Fog Fog
1:16 AM 62.6 °F 62.6 °F 100% 29.97 in 0.5 mi Calm Calm - N/A Fog Fog
1:21 AM 62.6 °F 62.6 °F 100% 29.97 in 0.4 mi Calm Calm - N/A Fog Fog
1:56 AM 61.9 °F 61.9 °F 100% 29.97 in 0.4 mi Calm Calm - N/A Fog Fog
2:01 AM 60.8 °F 60.8 °F 100% 29.97 in 0.5 mi Calm Calm - N/A Fog Fog
2:16 AM 60.8 °F 60.8 °F 100% 29.97 in 1.1 mi Calm Calm - N/A   Clear
2:21 AM 62.6 °F 62.6 °F 100% 29.97 in 6.0 mi Calm Calm - N/A   Clear
2:31 AM 62.6 °F 62.6 °F 100% 29.97 in 2.8 mi Calm Calm - N/A   Clear
2:36 AM 62.6 °F 62.6 °F 100% 29.97 in 2.2 mi Calm Calm - N/A   Clear
2:41 AM 60.8 °F 60.8 °F 100% 29.97 in 1.0 mi Calm Calm - N/A   Clear
2:46 AM 60.8 °F 60.8 °F 100% 29.96 in 0.9 mi Calm Calm - N/A   Clear
2:51 AM 60.8 °F 60.8 °F 100% 29.96 in 0.6 mi Calm Calm - N/A   Partly Cloudy
2:56 AM 61.0 °F 61.0 °F 100% 29.96 in 0.5 mi WNW 3.5 mph - N/A Fog Fog
3:31 AM 62.6 °F 62.6 °F 100% 29.95 in 2.2 mi West 4.6 mph - N/A   Partly Cloudy
3:36 AM 62.6 °F 62.6 °F 100% 29.95 in 7.0 mi WNW 5.8 mph - N/A   Partly Cloudy
3:56 AM 64.2 °F 64.2 °F 100% 29.95 in 10.0 mi WNW 5.8 mph - N/A   Clear
4:36 AM 62.6 °F 62.6 °F 100% 29.93 in 0.9 mi West 4.6 mph - N/A   Clear
4:41 AM 62.6 °F 62.6 °F 100% 29.93 in 0.8 mi West 5.8 mph - N/A   Clear
4:51 AM 62.6 °F 62.6 °F 100% 29.93 in 6.0 mi West 4.6 mph - N/A   Clear
4:56 AM 63.5 °F 63.5 °F 100% 29.92 in 6.0 mi West 4.6 mph - N/A   Clear
5:06 AM 62.6 °F 62.6 °F 100% 29.91 in 1.1 mi West 4.6 mph - N/A   Clear
5:11 AM 62.6 °F 62.6 °F 100% 29.91 in 0.5 mi WNW 3.5 mph - N/A Fog Fog
5:16 AM 62.6 °F 62.6 °F 100% 29.90 in 0.4 mi WNW 3.5 mph - N/A Fog Fog
5:25 AM 62.6 °F 62.6 °F 100% 29.91 in 0.2 mi WNW 4.6 mph - N/A Fog Fog
5:35 AM 62.6 °F 62.6 °F 100% 29.91 in 0.4 mi West 5.8 mph - N/A Fog Fog
5:40 AM 62.6 °F 62.6 °F 100% 29.91 in 1.0 mi West 4.6 mph - N/A   Mostly Cloudy
5:45 AM 64.4 °F 64.4 °F 100% 29.91 in 4.0 mi West 4.6 mph - N/A   Mostly Cloudy
5:56 AM 64.8 °F 64.8 °F 100% 29.93 in 10.0 mi WNW 5.8 mph - N/A   Overcast
6:41 AM 64.4 °F 64.4 °F 100% 29.98 in 10.0 mi WNW 5.8 mph - N/A   Scattered Clouds
6:56 AM 64.4 °F 64.4 °F 100% 29.99 in 10.0 mi West 5.8 mph - N/A   Partly Cloudy
7:56 AM 66.2 °F 66.2 °F 100% 30.00 in 10.0 mi WNW 9.2 mph - N/A   Partly Cloudy
8:56 AM 69.8 °F 68.0 °F 94% 30.01 in 10.0 mi NW 5.8 mph - N/A   Partly Cloudy
9:56 AM 71.6 °F 64.4 °F 78% 30.00 in 10.0 mi North 8.1 mph - N/A   Scattered Clouds
10:56 AM 73.4 °F 64.4 °F 73% 30.02 in 10.0 mi NW 10.4 mph - N/A   Mostly Cloudy
11:56 AM 75.2 °F 60.8 °F 61% 30.03 in 10.0 mi WNW 9.2 mph - N/A   Mostly Cloudy
12:56 PM 75.2 °F 60.8 °F 61% 30.02 in 10.0 mi WNW 12.7 mph - N/A   Scattered Clouds
1:56 PM 75.2 °F 59.0 °F 57% 30.00 in 10.0 mi WNW 11.5 mph - N/A   Scattered Clouds
2:56 PM 77.0 °F 57.2 °F 50% 30.00 in 10.0 mi NW 10.4 mph - N/A   Scattered Clouds
3:56 PM 77.0 °F 53.6 °F 44% 30.00 in 10.0 mi NW 10.4 mph - N/A   Scattered Clouds
4:56 PM 75.2 °F 55.4 °F 50% 30.00 in 10.0 mi WNW 8.1 mph - N/A   Mostly Cloudy
5:56 PM 71.6 °F 57.2 °F 60% 30.00 in 10.0 mi NW 6.9 mph - N/A   Mostly Cloudy
6:56 PM 68.0 °F 57.2 °F 68% 29.99 in 10.0 mi NW 5.8 mph - N/A   Mostly Cloudy
7:56 PM 64.4 °F 55.4 °F 73% 30.01 in 10.0 mi NW 5.8 mph - N/A   Mostly Cloudy
8:56 PM 57.2 °F 57.2 °F 100% 30.03 in 10.0 mi WNW 3.5 mph - N/A   Mostly Cloudy
9:56 PM 55.4 °F 55.4 °F 100% 30.04 in 10.0 mi WNW 3.5 mph - N/A   Mostly Cloudy
10:56 PM 53.6 °F 53.6 °F 100% 30.05 in 10.0 mi West 3.5 mph - N/A   Mostly Cloudy
11:56 PM 51.1 °F 51.1 °F 100% 30.05 in 1.2 mi Calm Calm - N/A   Clear